Home > Weather > Kowloon > Past weeks

Flag for Hong Kong Past Weather in Kowloon, Hong Kong — Yesterday and Last 2 Weeks

Now
86 °F

Passing clouds.


Feels Like: 97 °F
Forecast: 85 / 92 °F
Wind: 12 mph from Southwest

Location: National Airport

Current Time: Jul 24, 2016 at 3:18:22 AM

Latest Report: Jul 24, 2016 at 3:00 AM


Visibility: N/A

Pressure: 29.77 "Hg

Humidity: 75%

Dew Point: 77 °F

Location of KowloonLocation

Past Weather in Kowloon — Graph

°F

Kowloon Temperature Yesterday

Maximum temperature yesterday: 93 °F (at 3:00 PM)
Minimum temperature yesterday: 84 °F (at 1:30 AM)
Average temperature yesterday: 88 °F

High & Low Weather Summary for the Past Weeks

 TemperatureHumidityPressure
High97 °F (Jul 9, 2:00 PM)94% (Jul 10, 12:30 AM)29.89 "Hg (Jul 10, 12:30 AM)
Low77 °F (Jul 10, 1:30 AM)49% (Jul 22, 3:00 PM)29.45 "Hg (Jul 9, 3:00 PM)
Average87 °F73%29.71 "Hg
* Reported Jul 9 2:00 AM — Jul 24 2:00 AM, Kowloon, Weather by CustomWeather, © 2016

Note: Actual official high and low records may vary slightly from our data, if they occured in-between our weather recording intervals... More about our weather records

Advertising

Kowloon Weather History for the Previous 24 Hours

Scroll right to see more
 ConditionsComfort  
Time TempWeatherWind HumidityBarometerVisibility
2:00 AM
Sun, Jul 24
86 °FPassing clouds.12 mph75%29.77 "HgN/A
1:30 AM86 °FPassing clouds.9 mph70%29.77 "HgN/A
1:00 AM86 °FPassing clouds.7 mph70%29.77 "HgN/A
12:30 AM86 °FPassing clouds.3 mph70%29.77 "HgN/A
12:00 AM86 °FClear.5 mph70%29.77 "Hg10 mi
11:30 PM
Sat, Jul 23
86 °FClear.6 mph75%29.80 "Hg10 mi
11:00 PM86 °FPassing clouds.7 mph70%29.77 "HgN/A
10:30 PM88 °FPassing clouds.5 mph66%29.77 "HgN/A
10:00 PM88 °FPassing clouds.6 mph62%29.77 "HgN/A
9:30 PM86 °FPassing clouds.5 mph70%29.77 "HgN/A
9:00 PM88 °FPassing clouds.6 mph66%29.77 "HgN/A
8:30 PM88 °FPassing clouds.12 mph70%29.74 "HgN/A
8:00 PM88 °FPassing clouds.10 mph70%29.74 "HgN/A
7:30 PM88 °FClear.9 mph70%29.74 "Hg10 mi
7:00 PM88 °FPassing clouds.12 mph70%29.74 "HgN/A
6:30 PM90 °FPassing clouds.13 mph67%29.71 "HgN/A
6:00 PM91 °FPassing clouds.14 mph63%29.74 "HgN/A
5:30 PM91 °FPassing clouds.14 mph63%29.71 "HgN/A
5:00 PM93 °FPassing clouds.14 mph59%29.71 "HgN/A
4:30 PM93 °FPassing clouds.14 mph56%29.74 "HgN/A
4:00 PM93 °FPassing clouds.13 mph56%29.74 "HgN/A
3:30 PM93 °FPassing clouds.13 mph56%29.74 "HgN/A
3:00 PM93 °FPassing clouds.16 mph56%29.77 "HgN/A
2:30 PM91 °FPassing clouds.13 mph63%29.77 "HgN/A
2:00 PM91 °FPassing clouds.13 mph63%29.77 "HgN/A
1:30 PM91 °FPassing clouds.9 mph63%29.80 "HgN/A
1:00 PM91 °FPassing clouds.9 mph59%29.80 "HgN/A
12:30 PM91 °FPassing clouds.7 mph59%29.80 "HgN/A
12:00 PM90 °FPassing clouds.7 mph67%29.83 "HgN/A
11:30 AM90 °FPassing clouds.7 mph63%29.83 "HgN/A
11:00 AM90 °FPassing clouds.5 mph67%29.83 "HgN/A
10:30 AM90 °FPassing clouds.6 mph67%29.83 "HgN/A
10:00 AM88 °FPassing clouds.6 mph70%29.83 "HgN/A
9:30 AM88 °FPassing clouds.6 mph70%29.83 "HgN/A
9:00 AM88 °FPassing clouds.6 mph70%29.83 "HgN/A
8:30 AM88 °FPassing clouds.7 mph75%29.83 "HgN/A
8:00 AM86 °FPassing clouds.6 mph79%29.83 "HgN/A
7:30 AM86 °FPassing clouds.6 mph79%29.83 "HgN/A
7:00 AM84 °FPassing clouds.6 mph84%29.83 "HgN/A
6:30 AM84 °FScattered clouds.5 mph84%29.83 "HgN/A
6:00 AM84 °FPassing clouds.5 mph84%29.80 "HgN/A
5:30 AM84 °FPassing clouds.8 mph84%29.80 "HgN/A
5:00 AM84 °FPassing clouds.8 mph84%29.80 "HgN/A
4:30 AM84 °FPassing clouds.7 mph84%29.80 "HgN/A
4:00 AM84 °FPassing clouds.9 mph79%29.80 "HgN/A
3:30 AM84 °FPassing clouds.10 mph79%29.80 "HgN/A
3:00 AM84 °FPassing clouds.9 mph79%29.80 "HgN/A
Weather by CustomWeather, © 2016

See weather overviewHow to use our weather pages